Weather History for KFOT - May, 2014

Change the Weather History Date:

Thursday, May 1, 2014

  Actual Average (KEKA) Record (KEKA)
Temperature  
Mean Temperature 70 °F 52 °F  
Max Temperature 86 °F 59 °F 79 °F (1940)
Min Temperature 53 °F 46 °F 35 °F (1887)
Degree Days  
Heating Degree Days 0 13  
Month to date heating degree days 13  
Since 1 July heating degree days 3834  
Cooling Degree Days 4 0  
Month to date cooling degree days 0  
Year to date cooling degree days 0  
Growing Degree Days 20 (Base 50)    
Moisture  
Dew Point 47 °F    
Average Humidity 60    
Maximum Humidity 100    
Minimum Humidity 18    
Precipitation  
Precipitation 0.00 in 0.08 in 1.36 in (1921)
Month to date precipitation 0.08  
Year to date precipitation 20.83  
Snow  
Snow 0.00 in 0.00 in 0.00 in (2002)
Month to date snowfall 0.0  
Since 1 July snowfall 0.2  
Snow Depth -    
Sea Level Pressure  
Sea Level Pressure 30.07 in    
Wind  
Wind Speed 10 mph (SSE)    
Max Wind Speed 20 mph    
Max Gust Speed 24 mph    
Visibility 8 miles    
Events      
T = Trace of Precipitation, MM = Missing Value Source: NWS Daily Summary

Daily Weather History Graph

Daily Weather History Graph

Search for Another Location

Airport or City:

Trip Planner

Search our weather history database for the weather conditions in past years. The results will help you decide how hot, cold, wet, or windy it might be!

Date:

Astronomy

May. 01, 2014 Rise Set
Actual Time 6:15 AM PDT 8:12 PM PDT
Civil Twilight 5:45 AM PDT 8:42 PM PDT
Nautical Twilight 5:09 AM PDT 9:18 PM PDT
Astronomical Twilight 4:30 AM PDT 9:57 PM PDT
Moon 8:07 AM PDT (5/1) 10:50 PM PDT (5/1)
Length of Visible Light 14h 56m
Length of Day
13h 57m
Waxing Crescent, 7% of the Moon is Illuminated
May 1
Waxing Crescent
May 6
First Quarter
May 14
Full
May 21
Last Quarter
May 28
New

Hourly Weather History & Observations

Time (PDT) Temp. Dew Point Humidity Pressure Visibility Wind Dir Wind Speed Gust Speed Precip Events Conditions
12:15 AM 57.2 °F 46.4 °F 67% 30.06 in 10.0 mi SE 9.2 mph - N/A   Clear
12:35 AM 55.4 °F 46.4 °F 72% 30.06 in 10.0 mi SE 11.5 mph - N/A   Clear
12:55 AM 57.2 °F 46.4 °F 67% 30.06 in 10.0 mi ESE 11.5 mph - N/A   Clear
1:15 AM 57.2 °F 46.4 °F 67% 30.04 in 10.0 mi SE 12.7 mph - N/A   Clear
1:35 AM 55.4 °F 46.4 °F 72% 30.04 in 10.0 mi SE 12.7 mph - N/A   Clear
1:55 AM 55.4 °F 46.4 °F 72% 30.04 in 10.0 mi SE 11.5 mph - N/A   Clear
2:15 AM 55.4 °F 46.4 °F 72% 30.03 in 10.0 mi SE 12.7 mph - N/A   Clear
2:35 AM 55.4 °F 46.4 °F 72% 30.03 in 10.0 mi SE 12.7 mph - N/A   Clear
3:15 AM 55.4 °F 46.4 °F 72% 30.03 in 10.0 mi SE 11.5 mph - N/A   Clear
3:35 AM 55.4 °F 44.6 °F 67% 30.02 in 10.0 mi SE 12.7 mph - N/A   Clear
3:55 AM 55.4 °F 46.4 °F 72% 30.02 in 10.0 mi SE 12.7 mph - N/A   Clear
4:15 AM 55.4 °F 46.4 °F 72% 30.02 in 10.0 mi SE 10.4 mph - N/A   Clear
4:35 AM 55.4 °F 46.4 °F 72% 30.03 in 10.0 mi SE 10.4 mph - N/A   Clear
4:55 AM 55.4 °F 46.4 °F 72% 30.03 in 10.0 mi SE 11.5 mph - N/A   Clear
5:15 AM 55.4 °F 46.4 °F 72% 30.02 in 10.0 mi SE 12.7 mph - N/A   Clear
5:35 AM 55.4 °F 46.4 °F 72% 30.03 in 10.0 mi SE 11.5 mph - N/A   Clear
5:55 AM 53.6 °F 46.4 °F 77% 30.03 in 10.0 mi SE 11.5 mph - N/A   Clear
6:15 AM 55.4 °F 44.6 °F 67% 30.03 in 10.0 mi SE 12.7 mph - N/A   Clear
6:35 AM 55.4 °F 44.6 °F 67% 30.03 in 10.0 mi SE 12.7 mph - N/A   Clear
7:15 AM 55.4 °F 46.4 °F 72% 30.04 in 10.0 mi SE 10.4 mph - N/A   Clear
8:15 AM 59.0 °F 48.2 °F 67% 30.05 in 10.0 mi SE 9.2 mph - N/A   Clear
8:35 AM 59.0 °F 48.2 °F 67% 30.05 in 10.0 mi SE 8.1 mph - N/A   Clear
8:55 AM 62.6 °F 50.0 °F 63% 30.06 in 10.0 mi SSE 6.9 mph - N/A   Clear
9:15 AM 62.6 °F 50.0 °F 63% 30.06 in 10.0 mi SSE 5.8 mph - N/A   Clear
9:35 AM 64.4 °F 50.0 °F 59% 30.06 in 10.0 mi SSE 5.8 mph - N/A   Clear
9:55 AM 68.0 °F 53.6 °F 60% 30.06 in 10.0 mi SSE 4.6 mph - N/A   Clear
10:15 AM 69.8 °F 53.6 °F 56% 30.06 in 10.0 mi SSE 4.6 mph - N/A   Clear
10:35 AM 71.6 °F 51.8 °F 50% 30.06 in 10.0 mi Calm Calm - N/A   Clear
11:15 AM 78.8 °F 50.0 °F 36% 30.06 in 10.0 mi SE 10.4 mph - N/A   Clear
11:35 AM 80.6 °F 46.4 °F 30% 30.06 in 10.0 mi SE 10.4 mph - N/A   Clear
11:55 AM 82.4 °F 46.4 °F 28% 30.07 in 10.0 mi ESE 8.1 mph 16.1 mph N/A   Clear
12:15 PM 84.2 °F 46.4 °F 27% 30.07 in 10.0 mi ESE 9.2 mph - N/A   Clear
12:35 PM 84.2 °F 44.6 °F 25% 30.07 in 10.0 mi ESE 12.7 mph 18.4 mph N/A   Clear
12:55 PM 84.2 °F 46.4 °F 27% 30.06 in 10.0 mi SE 8.1 mph 16.1 mph N/A   Clear
1:15 PM 84.2 °F 37.4 °F 19% 30.06 in 10.0 mi SSE 13.8 mph 19.6 mph N/A   Clear
1:35 PM 86.0 °F 37.4 °F 18% 30.06 in 10.0 mi South 10.4 mph 18.4 mph N/A   Clear
2:15 PM 86.0 °F 37.4 °F 18% 30.07 in 10.0 mi South 11.5 mph 20.7 mph N/A   Clear
2:35 PM 86.0 °F 37.4 °F 18% 30.08 in 10.0 mi South 10.4 mph 18.4 mph N/A   Clear
2:55 PM 86.0 °F 39.2 °F 19% 30.07 in 10.0 mi South 13.8 mph - N/A   Clear
3:15 PM 86.0 °F 37.4 °F 18% 30.07 in 10.0 mi SE 10.4 mph 19.6 mph N/A   Clear
3:35 PM 86.0 °F 37.4 °F 18% 30.07 in 10.0 mi South 12.7 mph 18.4 mph N/A   Clear
3:55 PM 86.0 °F 39.2 °F 19% 30.07 in 10.0 mi SSW 5.8 mph - N/A   Clear
4:15 PM 84.2 °F 39.2 °F 20% 30.07 in 10.0 mi South 12.7 mph 18.4 mph N/A   Clear
4:35 PM 86.0 °F 39.2 °F 19% 30.07 in 10.0 mi SSW 9.2 mph - N/A   Clear
4:55 PM 84.2 °F 39.2 °F 20% 30.07 in 10.0 mi SSW 8.1 mph - N/A   Clear
5:15 PM 84.2 °F 39.2 °F 20% 30.07 in 10.0 mi SW 10.4 mph - N/A   Clear
5:55 PM 82.4 °F 46.4 °F 28% 30.08 in 10.0 mi NNW 4.6 mph - N/A   Clear
6:15 PM 77.0 °F 48.2 °F 36% 30.08 in 10.0 mi NW 6.9 mph - N/A   Clear
6:35 PM 73.4 °F 48.2 °F 41% 30.08 in 10.0 mi NW 9.2 mph - N/A   Clear
6:55 PM 71.6 °F 50.0 °F 46% 30.08 in 10.0 mi NW 6.9 mph - N/A   Clear
7:15 PM 64.4 °F 53.6 °F 68% 30.08 in 10.0 mi WNW 16.1 mph - N/A   Clear
7:35 PM 57.2 °F 53.6 °F 88% 30.09 in 10.0 mi WNW 18.4 mph - N/A   Clear
7:55 PM 53.6 °F 53.6 °F 100% 30.10 in 0.2 mi WNW 18.4 mph - N/A   Overcast
8:15 PM 53.6 °F 53.6 °F 100% 30.12 in 0.2 mi NW 18.4 mph - N/A   Overcast
8:35 PM 53.6 °F 53.6 °F 100% 30.13 in 0.2 mi NW 19.6 mph 24.2 mph N/A   Overcast
8:55 PM 53.6 °F 53.6 °F 100% 30.15 in 0.2 mi NW 11.5 mph - N/A   Overcast
9:15 PM 53.6 °F 53.6 °F 100% 30.16 in 0.5 mi NW 9.2 mph - N/A   Overcast
9:35 PM 53.6 °F 53.6 °F 100% 30.16 in 1.5 mi NW 5.8 mph - N/A   Overcast
9:55 PM 53.6 °F 53.6 °F 100% 30.16 in 3.0 mi WNW 3.5 mph - N/A   Overcast
10:15 PM 53.6 °F 53.6 °F 100% 30.17 in 1.8 mi WNW 4.6 mph - N/A   Overcast
10:35 PM 53.6 °F 53.6 °F 100% 30.17 in 1.5 mi Calm Calm - N/A   Overcast
10:55 PM 53.6 °F 53.6 °F 100% 30.17 in 1.5 mi NW 3.5 mph - N/A   Overcast
11:15 PM 53.6 °F 53.6 °F 100% 30.17 in 1.2 mi Calm Calm - N/A   Overcast
11:35 PM 53.6 °F 53.6 °F 100% 30.17 in 1.2 mi Calm Calm - N/A   Overcast
11:55 PM 53.6 °F 53.6 °F 100% 30.17 in 1.2 mi Calm Calm - N/A   Overcast